Location: Columbia, SC
(34.0000°N, 81.0300°W)
Time: 17:49:10
(UTC-05:00)

Tiangong 1 - Visible Passes

Search period start: 17 November 2017 00:00
Search period end: 27 November 2017 00:00
Orbit: 286 x 309 km, 42.8° (Epoch: 17 November)

Date Brightness Start Highest point End Pass type
(mag) Time Alt. Az. Time Alt. Az. Time Alt. Az.
21 Nov 3.3 18:55:14 10° SSW 18:55:46 14° S 18:55:46 14° S visible
22 Nov 3.0 19:01:29 10° SW 19:02:34 21° SW 19:02:34 21° SW visible
23 Nov 3.4 19:08:08 10° WSW 19:09:09 20° W 19:09:09 20° W visible
24 Nov 1.8 17:40:14 10° SSW 17:42:32 29° SE 17:44:50 10° E visible
24 Nov 3.9 19:15:00 10° W 19:15:32 14° WNW 19:15:32 14° WNW visible
25 Nov 0.5 17:46:17 10° WSW 17:48:52 78° SSE 17:51:20 11° ENE visible
26 Nov 1.3 17:52:39 10° W 17:55:09 43° NNW 17:57:22 12° NE visible
